DW6016 Weather Reports


time (UTC)temp
F
wind
direction
speed
knots
gust
knots
rain 1hr
in
rain 24hr
in
rain mn
in
humidity
%
barometer
mb
20260509152804 60 326 0.0 0.0 0.00 0.00 0.00 79 1022.2
20260509152259 59 291 0.0 0.0 0.00 0.00 0.00 80 1022.4
20260509151757 58 308 0.9 1.7 0.00 0.00 0.00 80 1022.4
20260509151253 58 313 0.0 0.0 0.00 0.00 0.00 82 1022.5
20260509150752 57 107 1.7 1.7 0.00 0.00 0.00 82 1022.5
20260509150250 57 329 0.0 0.0 0.00 0.00 0.00 84 1022.7
20260509145746 56 295 0.9 0.9 0.00 0.00 0.00 85 1022.6
20260509145246 56 339 0.9 1.7 0.00 0.00 0.00 85 1022.4
20260509144743 55 306 0.9 0.9 0.00 0.00 0.00 88 1022.5
20260509144239 55 330 0.0 0.9 0.00 0.00 0.00 88 1022.4
20260509143737 55 330 0.0 0.9 0.00 0.00 0.00 89 1022.2
20260509143234 55 94 1.7 1.7 0.00 0.00 0.00 89 1022.3
20260509142730 53 322 0.9 0.9 0.00 0.00 0.00 95 1022.5
20260509142226 53 309 0.0 0.0 0.00 0.00 0.00 99 1022.5
20260509141722 52 308 0.0 0.0 0.00 0.00 0.00 99 1022.4
20260509141220 51 317 0.0 0.0 0.00 0.00 0.00 99 1022.4
20260509140716 51 317 0.0 0.0 0.00 0.00 0.00 99 1022.4
20260509140213 50 306 0.0 0.0 0.00 0.00 0.00 99 1022.6
20260509135710 49 299 0.0 0.0 0.00 0.00 0.00 99 1022.4
20260509135209 48 299 0.0 0.0 0.00 0.00 0.00 99 1022.4
20260509134705 48 298 0.0 0.0 0.00 0.00 0.00 99 1022.3
20260509134202 48 298 0.0 0.0 0.00 0.00 0.00 99 1022.2
20260509133659 47 298 0.0 0.0 0.00 0.00 0.00 99 1022.2
20260509133156 47 298 0.0 0.0 0.00 0.00 0.00 99 1022.3
20260509132655 46 298 0.0 0.0 0.00 0.00 0.00 99 1022.2
20260509132153 46 298 0.0 0.0 0.00 0.00 0.00 99 1022.1
20260509131649 45 298 0.0 0.0 0.00 0.00 0.00 99 1022.2
20260509131146 46 298 0.0 0.0 0.00 0.00 0.00 99 1022.2
20260509130641 45 298 0.0 0.0 0.00 0.00 0.00 99 1022.3
20260509130138 45 298 0.0 0.0 0.00 0.00 0.00 99 1022.0
20260509125635 45 298 0.0 0.0 0.00 0.00 0.00 99 1022.2
20260509125131 46 298 0.0 0.0 0.00 0.00 0.00 99 1022.0
20260509124628 46 298 0.0 0.0 0.00 0.00 0.00 99 1022.3
20260509124125 46 298 0.0 0.0 0.00 0.00 0.00 99 1022.3
20260509123623 46 298 0.0 0.0 0.00 0.00 0.00 99 1022.5
20260509123120 46 298 0.0 0.0 0.00 0.00 0.00 99 1022.2
20260509122615 46 298 0.0 0.0 0.00 0.00 0.00 99 1022.4
20260509122113 46 298 0.0 0.0 0.00 0.00 0.00 99 1022.3
20260509121609 46 298 0.0 0.0 0.00 0.00 0.00 99 1022.2
20260509121107 46 298 0.0 0.0 0.00 0.00 0.00 99 1022.3
20260509120605 46 298 0.0 0.0 0.00 0.00 0.00 99 1022.2
20260509115600 46 298 0.0 0.0 0.00 0.00 0.00 99 1022.4
20260509115057 46 298 0.0 0.0 0.00 0.00 0.00 99 1022.6
20260509114555 46 298 0.0 0.0 0.00 0.00 0.00 99 1022.4
20260509114054 46 298 0.0 0.0 0.00 0.00 0.00 99 1022.4
20260509113552 47 298 0.0 0.0 0.00 0.00 0.00 99 1022.1
20260509113049 47 298 0.0 0.0 0.00 0.00 0.00 99 1022.3
20260509112545 47 298 0.0 0.0 0.00 0.00 0.00 99 1022.6
20260509112042 47 298 0.0 0.0 0.00 0.00 0.00 99 1022.7
20260509111540 47 298 0.0 0.0 0.00 0.00 0.00 99 1022.5
20260509111037 47 298 0.0 0.0 0.00 0.00 0.00 99 1022.7
20260509110533 47 298 0.0 0.0 0.00 0.00 0.00 99 1022.7
20260509110031 47 298 0.0 0.0 0.00 0.00 0.00 99 1022.8
20260509105529 47 298 0.0 0.0 0.00 0.00 0.00 99 1022.7
20260509105026 48 298 0.0 0.0 0.00 0.00 0.00 99 1022.7
20260509104523 48 298 0.0 0.0 0.00 0.00 0.00 99 1023.0
20260509104020 48 298 0.0 0.0 0.00 0.00 0.00 98 1022.9
20260509103518 48 298 0.0 0.0 0.00 0.00 0.00 98 1022.6
20260509103016 48 298 0.0 0.0 0.00 0.00 0.00 98 1022.8
20260509102513 48 298 0.0 0.0 0.00 0.00 0.00 97 1022.8
20260509102009 48 298 0.0 0.0 0.00 0.00 0.00 97 1022.6
20260509101506 49 298 0.0 0.0 0.00 0.00 0.00 96 1022.7
20260509101003 49 298 0.0 0.0 0.00 0.00 0.00 96 1022.8
20260509100500 49 298 0.0 0.0 0.00 0.00 0.00 95 1022.7
20260509095956 50 298 0.0 0.0 0.00 0.00 0.00 95 1022.9
20260509095453 50 298 0.0 0.0 0.00 0.00 0.00 95 1023.0
20260509094951 50 297 0.0 0.0 0.00 0.00 0.00 95 1022.7
20260509094447 51 303 0.0 0.0 0.00 0.00 0.00 95 1022.9
20260509093944 51 305 0.0 0.0 0.00 0.00 0.00 95 1023.1
20260509093442 50 311 0.0 0.0 0.00 0.00 0.00 95 1022.9
20260509092940 51 301 0.0 0.0 0.00 0.00 0.00 95 1022.9
20260509092438 50 311 0.0 0.0 0.00 0.00 0.00 96 1022.9
20260509091936 50 315 0.0 0.0 0.00 0.00 0.00 96 1023.1
20260509091432 50 315 0.0 0.0 0.00 0.00 0.00 95 1023.3
20260509090930 50 315 0.0 0.0 0.00 0.00 0.00 95 1023.1
20260509090427 50 323 0.0 0.9 0.00 0.00 0.00 96 1023.2
20260509085925 50 311 0.0 0.0 0.00 0.00 0.00 95 1023.2
20260509085421 50 312 0.0 0.0 0.00 0.00 0.00 94 1023.4
20260509084917 50 312 0.0 0.0 0.00 0.00 0.00 94 1023.2
20260509084414 50 312 0.0 0.0 0.00 0.00 0.00 93 1023.2
20260509083912 51 312 0.0 0.0 0.00 0.00 0.00 92 1023.3
20260509083409 51 312 0.0 0.0 0.00 0.00 0.00 92 1023.4
20260509082906 51 312 0.0 0.0 0.00 0.00 0.00 92 1023.3
20260509082403 51 312 0.0 0.0 0.00 0.00 0.00 92 1023.3
20260509081859 52 311 0.0 0.0 0.00 0.00 0.00 91 1023.3
20260509081357 52 312 0.0 0.0 0.00 0.00 0.00 90 1023.5
20260509080854 52 312 0.0 0.0 0.00 0.00 0.00 89 1023.6
20260509080352 53 312 0.0 0.0 0.00 0.00 0.00 89 1023.6
20260509075850 53 312 0.0 0.9 0.00 0.00 0.00 88 1023.6
20260509075347 53 312 0.0 0.0 0.00 0.00 0.00 87 1023.7
20260509074844 54 304 0.0 0.0 0.00 0.00 0.00 87 1023.5
20260509074342 54 314 0.0 0.9 0.00 0.00 0.00 86 1023.5
20260509073838 54 290 0.0 0.9 0.00 0.00 0.00 87 1023.9
20260509073334 54 305 0.0 0.0 0.00 0.00 0.00 87 1023.5
20260509072831 54 303 0.0 0.0 0.00 0.00 0.00 87 1023.8
20260509072327 54 307 0.0 0.9 0.00 0.00 0.00 87 1023.6
20260509071824 54 308 0.0 0.0 0.00 0.00 0.00 86 1023.6
20260509071321 54 308 0.0 0.0 0.00 0.00 0.00 85 1023.6
20260509070819 55 308 0.0 0.0 0.00 0.00 0.00 85 1023.6
20260509070315 55 309 0.0 0.0 0.00 0.00 0.00 84 1023.5
20260509065811 55 309 0.0 0.0 0.00 0.00 0.00 82 1023.7
20260509065308 56 309 0.0 0.0 0.00 0.00 0.00 81 1023.7
20260509064804 56 315 0.0 0.0 0.00 0.00 0.00 81 1023.6
20260509064301 56 302 0.0 0.0 0.00 0.00 0.00 80 1023.6
20260509063759 56 322 0.9 0.9 0.00 0.00 0.00 80 1023.8
20260509063255 56 302 0.0 0.9 0.00 0.00 0.00 80 1023.6
20260509062752 56 304 0.0 0.0 0.00 0.00 0.00 80 1023.6
20260509062249 57 301 0.9 0.9 0.00 0.00 0.00 79 1023.6
20260509061746 57 300 0.0 0.0 0.00 0.00 0.00 78 1023.6
20260509061244 57 296 0.0 0.9 0.00 0.00 0.00 77 1023.5
20260509060741 58 16 0.9 1.7 0.00 0.00 0.00 77 1023.5
20260509060237 58 312 0.0 0.9 0.00 0.00 0.00 76 1023.3
20260509055733 58 295 0.0 0.9 0.00 0.00 0.00 76 1023.3
20260509055229 58 311 0.0 0.0 0.00 0.00 0.00 75 1023.5
20260509054726 59 314 0.0 0.0 0.00 0.00 0.00 74 1023.4
20260509054223 59 318 0.0 0.0 0.00 0.00 0.00 74 1023.4
20260509053722 59 301 0.0 0.0 0.00 0.00 0.00 73 1023.3
20260509053218 59 304 0.0 0.9 0.00 0.00 0.00 73 1023.5
20260509052716 60 315 0.0 0.0 0.00 0.00 0.00 73 1023.5
20260509052213 60 303 0.0 0.0 0.00 0.00 0.00 72 1023.3
20260509051711 60 291 0.0 0.0 0.00 0.00 0.00 73 1023.3
20260509051209 60 300 0.0 0.0 0.00 0.00 0.00 72 1023.3
20260509050705 60 299 0.0 0.0 0.00 0.00 0.00 72 1023.4
20260509050202 60 311 0.0 0.0 0.00 0.00 0.00 71 1023.2
20260509045659 60 297 0.0 0.9 0.00 0.00 0.00 71 1023.2
20260509045156 61 301 0.0 0.0 0.00 0.00 0.00 71 1023.2
20260509044653 61 296 0.0 0.9 0.00 0.00 0.00 70 1022.8
20260509044150 61 308 0.0 0.0 0.00 0.00 0.00 69 1023.0
20260509043647 61 300 0.0 0.0 0.00 0.00 0.00 69 1023.0
20260509043142 62 312 0.9 0.9 0.00 0.00 0.00 68 1022.8
20260509042639 62 329 3.5 4.3 0.00 0.00 0.00 68 1022.8
20260509042135 62 306 0.0 0.9 0.00 0.00 0.00 68 1022.7
20260509041632 62 299 0.0 0.9 0.00 0.00 0.00 67 1022.9
20260509041130 62 318 0.0 0.9 0.00 0.00 0.00 66 1022.8
20260509040628 63 278 0.9 0.9 0.00 0.00 0.00 66 1022.8
20260509040125 63 301 0.0 0.0 0.00 0.00 0.00 65 1022.5
20260509035621 63 331 0.9 0.9 0.00 0.00 0.00 65 1022.5
20260509035118 63 306 0.0 0.0 0.00 0.00 0.00 65 1022.6
20260509034616 63 280 0.0 0.9 0.00 0.00 0.00 64 1022.5
20260509034113 63 303 0.0 0.0 0.00 0.00 0.00 64 1022.2
20260509033609 63 293 0.9 0.9 0.00 0.00 0.00 64 1022.4
20260509033106 64 28 0.9 0.9 0.00 0.00 0.00 62 1022.3
20260509032604 64 230 0.9 1.7 0.00 0.00 0.00 61 1022.2
20260509032101 64 299 0.9 4.3 0.00 0.00 0.00 62 1021.9
20260509031559 64 292 0.0 0.0 0.00 0.00 0.00 62 1022.1
20260509031056 64 297 0.0 0.9 0.00 0.00 0.00 61 1022.2
20260509030554 64 298 0.0 0.0 0.00 0.00 0.00 61 1022.0
20260509030050 65 299 0.0 0.0 0.00 0.00 0.00 60 1022.0
20260509025546 65 303 2.6 2.6 0.00 0.00 0.00 59 1022.2
20260509025042 65 301 0.0 0.9 0.00 0.00 0.00 58 1022.0
20260509024538 66 290 0.0 0.9 0.00 0.00 0.00 58 1021.9
20260509024034 66 293 0.0 0.0 0.00 0.00 0.00 57 1022.1
20260509023532 66 293 0.9 0.9 0.00 0.00 0.00 56 1021.9
20260509023029 66 275 0.0 0.0 0.00 0.00 0.00 57 1021.9
20260509022525 66 294 0.0 0.9 0.00 0.00 0.00 56 1021.9
20260509022023 66 297 0.9 0.9 0.00 0.00 0.00 56 1021.9
20260509021520 66 304 0.0 0.0 0.00 0.00 0.00 56 1021.9
20260509021017 66 304 0.0 0.0 0.00 0.00 0.00 55 1022.1
20260509020516 66 302 0.0 0.0 0.00 0.00 0.00 56 1022.0
20260509020012 67 303 0.9 0.9 0.00 0.00 0.00 55 1021.9
20260509015511 67 295 0.9 0.9 0.00 0.00 0.00 54 1021.9
20260509015008 67 310 0.0 0.9 0.00 0.00 0.00 55 1021.8
20260509014504 67 299 0.0 0.0 0.00 0.00 0.00 55 1021.8
20260509014001 67 315 0.0 0.0 0.00 0.00 0.00 55 1021.8
20260509013458 67 337 0.9 0.9 0.00 0.00 0.00 54 1021.8
20260509012953 66 293 0.0 0.0 0.00 0.00 0.00 54 1021.6
20260509012450 67 292 0.0 0.0 0.00 0.00 0.00 56 1021.9
20260509011947 67 304 0.0 0.0 0.00 0.00 0.00 54 1021.9
20260509011444 66 304 0.0 0.9 0.00 0.00 0.00 55 1021.9
20260509010942 66 304 0.0 0.0 0.00 0.00 0.00 56 1022.1
20260509010440 67 303 0.0 0.0 0.00 0.00 0.00 53 1022.0
20260509005936 67 324 0.0 0.0 0.00 0.00 0.00 53 1022.0
20260509005435 67 120 1.7 2.6 0.00 0.00 0.00 54 1021.9
20260509004934 67 308 0.0 0.0 0.00 0.00 0.00 54 1022.0
20260509004431 67 308 0.0 0.0 0.00 0.00 0.00 52 1022.2
20260509003929 67 297 0.0 0.9 0.00 0.00 0.00 55 1022.0
20260509003427 68 300 0.0 0.9 0.00 0.00 0.00 52 1022.3
20260509002923 68 306 0.0 0.0 0.00 0.00 0.00 53 1022.0
20260509002421 68 294 0.0 0.0 0.00 0.00 0.00 53 1022.1
20260509001918 68 260 0.9 0.9 0.00 0.00 0.00 53 1022.1
20260509001414 67 298 0.0 0.0 0.00 0.00 0.00 54 1022.2
20260509000912 68 319 1.7 2.6 0.00 0.00 0.00 53 1022.3
20260509000410 68 321 0.0 0.0 0.00 0.00 0.00 53 1022.2
20260508235905 67 310 0.0 0.9 0.00 0.00 0.00 53 1022.5
20260508235403 67 316 2.6 2.6 0.00 0.00 0.00 54 1022.3
20260508234900 67 300 0.9 1.7 0.00 0.00 0.00 54 1022.4
20260508234356 67 297 1.7 1.7 0.00 0.00 0.00 55 1022.2
20260508233855 67 109 3.5 5.2 0.00 0.00 0.00 53 1022.2
20260508233354 67 310 0.0 0.0 0.00 0.00 0.00 57 1022.2
20260508232850 67 309 0.0 0.9 0.00 0.00 0.00 54 1022.4
20260508232346 66 297 0.9 1.7 0.00 0.00 0.00 56 1022.2
20260508231845 66 310 0.0 0.9 0.00 0.00 0.00 55 1022.3
20260508231341 66 344 0.0 0.0 0.00 0.00 0.00 55 1022.3
20260508230838 66 304 0.9 1.7 0.00 0.00 0.00 56 1022.2
20260508230334 65 339 0.9 0.9 0.00 0.00 0.00 56 1022.5
20260508225832 65 324 2.6 2.6 0.00 0.00 0.00 56 1022.3
20260508225328 66 300 3.5 4.3 0.00 0.00 0.00 54 1022.3
20260508224826 66 106 0.9 1.7 0.00 0.00 0.00 55 1022.6
20260508224324 65 292 1.7 2.6 0.00 0.00 0.00 57 1022.3
20260508223821 65 314 0.0 0.0 0.00 0.00 0.00 56 1022.5
20260508223318 66 319 0.0 0.0 0.00 0.00 0.00 55 1022.6
20260508222816 66 233 0.9 1.7 0.00 0.00 0.00 58 1022.6
20260508222313 65 292 0.0 0.0 0.00 0.00 0.00 56 1022.5
20260508221809 65 321 0.9 1.7 0.00 0.00 0.00 58 1022.6
20260508221305 65 317 0.9 0.9 0.00 0.00 0.00 57 1022.7
20260508220801 66 298 0.9 2.6 0.00 0.00 0.00 55 1022.7
20260508220258 65 295 0.0 0.0 0.00 0.00 0.00 57 1022.6
20260508215754 64 298 0.0 0.0 0.00 0.00 0.00 56 1022.5
20260508215251 64 290 0.9 0.9 0.00 0.00 0.00 59 1022.7
20260508214748 65 337 0.9 0.9 0.00 0.00 0.00 56 1022.8
20260508214245 65 295 0.0 0.9 0.00 0.00 0.00 63 1022.8
20260508213742 65 303 0.9 1.7 0.00 0.00 0.00 56 1022.6
20260508213238 65 192 2.6 5.2 0.00 0.00 0.00 56 1022.7
20260508212735 64 274 0.9 0.9 0.00 0.00 0.00 57 1023.0
20260508212231 64 78 0.9 1.7 0.00 0.00 0.00 58 1022.6
20260508211727 63 267 0.9 0.9 0.00 0.00 0.00 57 1022.6
20260508211223 63 330 0.9 0.9 0.00 0.00 0.00 60 1022.8
20260508210721 64 317 0.9 0.9 0.00 0.00 0.00 61 1022.6
20260508210218 65 312 0.9 1.7 0.00 0.00 0.00 56 1022.7
20260508205714 64 311 0.0 0.0 0.00 0.00 0.00 62 1022.8
20260508205211 64 297 0.0 0.9 0.00 0.00 0.00 59 1022.8
20260508204707 63 182 1.7 2.6 0.00 0.00 0.00 57 1022.7
20260508204203 63 284 0.9 0.9 0.00 0.00 0.00 58 1022.6
20260508203659 63 160 0.0 0.0 0.00 0.00 0.00 57 1022.8
20260508203156 61 310 0.0 0.0 0.00 0.00 0.00 61 1022.9
20260508202652 61 327 1.7 2.6 0.00 0.00 0.00 60 1022.8
20260508202149 62 306 1.7 1.7 0.00 0.00 0.00 60 1022.9
20260508201646 63 303 0.9 1.7 0.00 0.00 0.00 61 1022.9
20260508201143 62 55 1.7 2.6 0.00 0.00 0.00 58 1022.8
20260508200640 63 315 0.0 0.0 0.00 0.00 0.00 63 1022.9
20260508200136 63 294 0.0 0.9 0.00 0.00 0.00 61 1023.1
20260508195632 62 243 0.9 1.7 0.00 0.00 0.00 60 1023.1
20260508195129 63 309 0.9 1.7 0.00 0.00 0.00 57 1023.3
20260508194626 62 295 0.0 0.9 0.00 0.00 0.00 58 1023.3
20260508194123 62 296 0.0 0.0 0.00 0.00 0.00 60 1023.2
20260508193620 60 282 0.0 0.9 0.00 0.00 0.00 65 1023.0
20260508193116 59 222 0.9 0.9 0.00 0.00 0.00 63 1023.1
20260508192613 60 322 2.6 4.3 0.00 0.00 0.00 63 1023.0
20260508192110 60 301 2.6 2.6 0.00 0.00 0.00 63 1023.2
20260508191607 59 315 0.0 0.0 0.00 0.00 0.00 65 1023.2
20260508191103 60 307 0.9 1.7 0.00 0.00 0.00 64 1023.4
20260508190600 60 300 5.2 5.2 0.00 0.00 0.00 61 1023.3
20260508190057 59 322 0.9 1.7 0.00 0.00 0.00 64 1023.1
20260508185554 59 309 0.0 0.0 0.00 0.00 0.00 64 1023.3
20260508185052 59 303 0.9 0.9 0.00 0.00 0.00 63 1023.3
20260508184549 60 310 0.0 0.9 0.00 0.00 0.00 66 1023.4
20260508184046 60 296 0.0 0.9 0.00 0.00 0.00 63 1023.5
20260508183542 60 293 0.9 0.9 0.00 0.00 0.00 66 1023.2
20260508183038 59 310 0.9 1.7 0.00 0.00 0.00 68 1023.3
20260508182535 60 312 0.0 0.9 0.00 0.00 0.00 65 1023.3
20260508182031 60 292 0.9 0.9 0.00 0.00 0.00 65 1023.3
20260508181527 58 312 0.9 0.9 0.00 0.00 0.00 67 1023.1
20260508181025 58 318 0.0 0.9 0.00 0.00 0.00 70 1023.3
20260508180521 57 317 1.7 1.7 0.00 0.00 0.00 70 1023.0
20260508180017 57 315 2.6 2.6 0.00 0.00 0.00 70 1023.4
20260508175514 58 296 3.5 4.3 0.00 0.00 0.00 70 1023.1
20260508175011 60 295 0.0 0.9 0.00 0.00 0.00 68 1023.0
20260508174509 59 302 0.9 0.9 0.00 0.00 0.00 69 1022.9
20260508174006 59 120 1.7 2.6 0.00 0.00 0.00 69 1023.2
20260508173503 59 276 0.0 0.9 0.00 0.00 0.00 70 1022.9
20260508172959 59 297 0.0 0.0 0.00 0.00 0.00 71 1022.9
20260508172456 58 301 0.0 0.0 0.00 0.00 0.00 72 1023.0
20260508171952 57 281 0.9 0.9 0.00 0.00 0.00 73 1022.7
20260508171449 57 315 0.0 0.0 0.00 0.00 0.00 74 1022.7
20260508170945 58 291 0.0 0.0 0.00 0.00 0.00 71 1022.6
20260508170443 57 311 0.9 0.9 0.00 0.00 0.00 73 1022.7
20260508165939 56 297 0.0 0.9 0.00 0.00 0.00 75 1022.6
20260508165438 55 299 0.9 0.9 0.00 0.00 0.00 76 1022.6
20260508164933 55 306 0.9 0.9 0.00 0.00 0.00 75 1022.2
20260508164430 55 312 0.0 0.0 0.00 0.00 0.00 76 1022.1
20260508163927 54 309 1.7 1.7 0.00 0.00 0.00 75 1022.0
20260508163425 56 296 0.0 0.9 0.00 0.00 0.00 75 1022.2
20260508162920 56 302 0.0 0.9 0.00 0.00 0.00 75 1022.1
20260508162418 57 286 0.9 0.9 0.00 0.00 0.00 71 1022.3
20260508161915 57 300 0.0 0.0 0.00 0.00 0.00 75 1022.2
20260508161412 56 316 0.0 0.0 0.00 0.00 0.00 76 1022.2
20260508160909 55 308 0.0 0.9 0.00 0.00 0.00 75 1022.0
20260508160408 55 290 0.0 0.0 0.00 0.00 0.00 77 1022.1
20260508155903 55 67 1.7 1.7 0.00 0.00 0.00 75 1022.1
20260508155401 54 328 0.0 0.9 0.00 0.00 0.00 76 1021.8
20260508154858 53 294 0.0 0.9 0.00 0.00 0.00 78 1021.8
20260508154355 54 42 0.0 0.0 0.00 0.00 0.00 77 1022.0
20260508153852 53 281 1.7 1.7 0.00 0.00 0.00 78 1021.9
20260508153349 53 295 0.0 0.0 0.00 0.00 0.00 79 1021.8
20260508152845 53 80 0.0 0.0 0.00 0.00 0.00 79 1022.0